Wetterdaten: Mittwoch, 15.10.2014
Datum Zeit Temperatur Luftfeuchte Luftdruck Regen Wind Richtung Richtung Taupunkt Windchill Windben
15.10.2014 00:00 8,0 C 90 % 1013,3 hPa 0,0 l/m 0,0 km/h (0 Bft) S-SO 157 6,5 C 22,8 C 0,0 km/h (0 Bft)
15.10.2014 00:10 8,0 C 90 % 1013,2 hPa 0,0 l/m 0,0 km/h (0 Bft) S-SO 157 6,5 C 22,8 C 0,0 km/h (0 Bft)
15.10.2014 00:20 8,2 C 90 % 1013,2 hPa 0,0 l/m 0,0 km/h (0 Bft) S-SO 157 6,7 C 22,8 C 0,0 km/h (0 Bft)
15.10.2014 00:30 8,3 C 91 % 1013,0 hPa 0,0 l/m 0,0 km/h (0 Bft) S-SO 157 6,9 C 22,8 C 0,0 km/h (0 Bft)
15.10.2014 00:40 8,4 C 91 % 1013,0 hPa 0,0 l/m 0,0 km/h (0 Bft) S-SO 157 7,0 C 22,8 C 0,0 km/h (0 Bft)
15.10.2014 00:48 8,4 C 91 % 1012,9 hPa 0,0 l/m 0,0 km/h (0 Bft) S-SO 157 7,0 C 22,8 C 0,0 km/h (0 Bft)
15.10.2014 00:50 8,4 C 91 % 1012,9 hPa 0,0 l/m 0,0 km/h (0 Bft) S-SO 157 7,0 C 22,8 C 0,0 km/h (0 Bft)
15.10.2014 01:00 8,4 C 91 % 1012,9 hPa 0,0 l/m 0,0 km/h (0 Bft) S-SO 157 7,0 C 22,8 C 0,0 km/h (0 Bft)
15.10.2014 01:10 8,7 C 91 % 1012,7 hPa 0,0 l/m 0,0 km/h (0 Bft) S-SO 157 7,3 C 22,8 C 0,0 km/h (0 Bft)
15.10.2014 01:20 9,2 C 91 % 1012,7 hPa 0,0 l/m 0,0 km/h (0 Bft) S-SO 157 7,8 C 22,8 C 0,0 km/h (0 Bft)
15.10.2014 01:30 9,3 C 92 % 1013,1 hPa 0,0 l/m 0,0 km/h (0 Bft) S-SO 157 8,1 C 22,8 C 0,0 km/h (0 Bft)
15.10.2014 01:40 9,4 C 92 % 1013,1 hPa 0,0 l/m 0,0 km/h (0 Bft) S-SO 157 8,2 C 22,8 C 0,0 km/h (0 Bft)
15.10.2014 01:50 9,6 C 92 % 1013,0 hPa 0,0 l/m 0,0 km/h (0 Bft) S-SO 157 8,4 C 22,8 C 0,0 km/h (0 Bft)
15.10.2014 02:00 9,5 C 91 % 1013,0 hPa 0,0 l/m 0,0 km/h (0 Bft) S-SO 157 8,1 C 22,8 C 0,0 km/h (0 Bft)
15.10.2014 02:10 9,3 C 91 % 1012,9 hPa 0,0 l/m 0,0 km/h (0 Bft) S-SO 157 7,9 C 22,8 C 0,0 km/h (0 Bft)
15.10.2014 02:20 9,4 C 91 % 1012,9 hPa 0,0 l/m 0,0 km/h (0 Bft) S-SO 157 8,0 C 22,8 C 0,0 km/h (0 Bft)
15.10.2014 02:30 9,6 C 91 % 1013,1 hPa 0,0 l/m 0,0 km/h (0 Bft) S-SO 157 8,2 C 22,8 C 0,0 km/h (0 Bft)
15.10.2014 02:40 9,6 C 91 % 1013,1 hPa 0,0 l/m 0,0 km/h (0 Bft) S-SO 157 8,2 C 22,8 C 0,0 km/h (0 Bft)
15.10.2014 02:50 10,1 C 91 % 1013,2 hPa 0,0 l/m 0,0 km/h (0 Bft) S-SO 157 8,7 C 22,8 C 0,0 km/h (0 Bft)
15.10.2014 03:00 11,3 C 87 % 1013,2 hPa 0,0 l/m 0,0 km/h (0 Bft) S-SO 157 9,2 C 22,8 C 0,0 km/h (0 Bft)
15.10.2014 03:10 11,4 C 85 % 1013,2 hPa 0,0 l/m 0,0 km/h (0 Bft) S-SO 157 9,0 C 22,8 C 0,0 km/h (0 Bft)
15.10.2014 03:20 11,2 C 85 % 1013,2 hPa 0,0 l/m 0,0 km/h (0 Bft) S-SO 157 8,8 C 22,8 C 0,0 km/h (0 Bft)
15.10.2014 03:30 10,9 C 86 % 1013,1 hPa 0,0 l/m 0,0 km/h (0 Bft) S-SO 157 8,7 C 22,8 C 0,0 km/h (0 Bft)
15.10.2014 03:40 10,9 C 86 % 1013,1 hPa 0,0 l/m 0,0 km/h (0 Bft) S-SO 157 8,7 C 22,8 C 0,0 km/h (0 Bft)
15.10.2014 03:48 10,8 C 86 % 1013,3 hPa 0,0 l/m 0,0 km/h (0 Bft) S-SO 157 8,6 C 22,8 C 0,0 km/h (0 Bft)
15.10.2014 03:50 10,8 C 86 % 1013,3 hPa 0,0 l/m 0,0 km/h (0 Bft) S-SO 157 8,6 C 22,8 C 0,0 km/h (0 Bft)
15.10.2014 04:00 10,5 C 88 % 1013,3 hPa 0,0 l/m 0,0 km/h (0 Bft) S-SO 157 8,6 C 22,8 C 0,0 km/h (0 Bft)
15.10.2014 04:10 10,3 C 91 % 1013,5 hPa 0,0 l/m 0,0 km/h (0 Bft) S-SO 157 8,9 C 22,8 C 0,0 km/h (0 Bft)
15.10.2014 04:20 10,3 C 92 % 1013,5 hPa 0,0 l/m 0,0 km/h (0 Bft) S-SO 157 9,1 C 22,8 C 0,0 km/h (0 Bft)
15.10.2014 04:30 10,2 C 92 % 1013,4 hPa 0,0 l/m 0,0 km/h (0 Bft) S-SO 157 9,0 C 22,8 C 0,0 km/h (0 Bft)
15.10.2014 04:40 10,1 C 93 % 1013,4 hPa 0,0 l/m 0,0 km/h (0 Bft) S-SO 157 9,0 C 22,8 C 0,0 km/h (0 Bft)
15.10.2014 04:50 10,2 C 93 % 1013,4 hPa 0,0 l/m 0,0 km/h (0 Bft) S-SO 157 9,1 C 22,8 C 0,0 km/h (0 Bft)
15.10.2014 05:00 10,1 C 93 % 1013,4 hPa 0,0 l/m 0,0 km/h (0 Bft) S-SO 157 9,0 C 22,8 C 0,0 km/h (0 Bft)
15.10.2014 05:10 10,1 C 94 % 1013,4 hPa 0,0 l/m 0,0 km/h (0 Bft) S-SO 157 9,2 C 22,8 C 0,0 km/h (0 Bft)
15.10.2014 05:20 10,2 C 94 % 1013,4 hPa 0,0 l/m 0,0 km/h (0 Bft) S-SO 157 9,3 C 22,8 C 0,0 km/h (0 Bft)
15.10.2014 05:30 10,2 C 94 % 1013,6 hPa 0,0 l/m 0,0 km/h (0 Bft) S-SO 157 9,3 C 22,8 C 0,0 km/h (0 Bft)
15.10.2014 05:40 10,2 C 94 % 1013,6 hPa 0,0 l/m 0,0 km/h (0 Bft) S-SO 157 9,3 C 22,8 C 0,0 km/h (0 Bft)
15.10.2014 05:50 10,2 C 94 % 1013,8 hPa 0,0 l/m 0,0 km/h (0 Bft) S-SO 157 9,3 C 22,8 C 0,0 km/h (0 Bft)
15.10.2014 06:00 10,1 C 94 % 1013,8 hPa 0,0 l/m 0,0 km/h (0 Bft) S-SO 157 9,2 C 22,8 C 0,0 km/h (0 Bft)
15.10.2014 06:10 10,0 C 94 % 1013,7 hPa 0,0 l/m 0,0 km/h (0 Bft) S-SO 157 9,1 C 22,8 C 0,0 km/h (0 Bft)
15.10.2014 06:20 9,9 C 95 % 1013,7 hPa 0,0 l/m 0,0 km/h (0 Bft) S-SO 157 9,1 C 22,8 C 0,0 km/h (0 Bft)
15.10.2014 06:30 9,9 C 95 % 1013,6 hPa 0,0 l/m 0,0 km/h (0 Bft) S-SO 157 9,1 C 22,8 C 0,0 km/h (0 Bft)
15.10.2014 06:40 9,7 C 95 % 1013,6 hPa 0,0 l/m 0,0 km/h (0 Bft) S-SO 157 8,9 C 22,8 C 0,0 km/h (0 Bft)
15.10.2014 06:48 9,6 C 95 % 1013,5 hPa 0,0 l/m 0,0 km/h (0 Bft) S-SO 157 8,8 C 22,8 C 0,0 km/h (0 Bft)
15.10.2014 06:50 9,6 C 95 % 1013,5 hPa 0,0 l/m 0,0 km/h (0 Bft) S-SO 157 8,8 C 22,8 C 0,0 km/h (0 Bft)
15.10.2014 07:00 9,5 C 95 % 1013,5 hPa 0,0 l/m 0,0 km/h (0 Bft) S-SO 157 8,7 C 22,8 C 0,0 km/h (0 Bft)
15.10.2014 07:10 9,5 C 95 % 1013,5 hPa 0,0 l/m 0,0 km/h (0 Bft) S-SO 157 8,7 C 22,8 C 0,0 km/h (0 Bft)
15.10.2014 07:20 9,5 C 95 % 1013,5 hPa 0,0 l/m 0,0 km/h (0 Bft) S-SO 157 8,7 C 22,8 C 0,0 km/h (0 Bft)
15.10.2014 07:30 9,5 C 95 % 1013,2 hPa 0,0 l/m 0,0 km/h (0 Bft) S-SO 157 8,7 C 22,8 C 0,0 km/h (0 Bft)
15.10.2014 07:40 9,5 C 95 % 1013,2 hPa 0,0 l/m 0,0 km/h (0 Bft) S-SO 157 8,7 C 22,8 C 0,0 km/h (0 Bft)
15.10.2014 07:50 9,3 C 95 % 1013,3 hPa 0,0 l/m 0,0 km/h (0 Bft) S-SO 157 8,5 C 22,8 C 0,0 km/h (0 Bft)
15.10.2014 08:00 9,4 C 95 % 1013,3 hPa 0,0 l/m 0,0 km/h (0 Bft) S-SO 157 8,6 C 22,8 C 0,0 km/h (0 Bft)
15.10.2014 08:10 9,7 C 95 % 1013,2 hPa 0,0 l/m 0,0 km/h (0 Bft) S-SO 157 8,9 C 22,8 C 0,0 km/h (0 Bft)
15.10.2014 08:20 9,6 C 95 % 1013,2 hPa 0,0 l/m 0,0 km/h (0 Bft) S-SO 157 8,8 C 22,8 C 0,0 km/h (0 Bft)
15.10.2014 08:30 9,7 C 95 % 1013,3 hPa 0,0 l/m 0,0 km/h (0 Bft) S-SO 157 8,9 C 22,8 C 0,0 km/h (0 Bft)
15.10.2014 08:40 9,8 C 95 % 1013,3 hPa 0,0 l/m 0,0 km/h (0 Bft) S-SO 157 9,0 C 22,8 C 0,0 km/h (0 Bft)
15.10.2014 08:50 10,1 C 95 % 1013,2 hPa 0,0 l/m 0,0 km/h (0 Bft) S-SO 157 9,3 C 22,8 C 0,0 km/h (0 Bft)
15.10.2014 09:00 10,5 C 95 % 1013,2 hPa 0,0 l/m 0,0 km/h (0 Bft) S-SO 157 9,7 C 22,8 C 0,0 km/h (0 Bft)
15.10.2014 09:10 10,2 C 95 % 1013,3 hPa 0,0 l/m 0,0 km/h (0 Bft) S-SO 157 9,4 C 22,8 C 0,0 km/h (0 Bft)
15.10.2014 09:20 9,9 C 95 % 1013,3 hPa 0,0 l/m 0,0 km/h (0 Bft) S-SO 157 9,1 C 22,8 C 0,0 km/h (0 Bft)
15.10.2014 09:30 10,6 C 95 % 1013,4 hPa 0,0 l/m 0,0 km/h (0 Bft) S-SO 157 9,8 C 22,8 C 0,0 km/h (0 Bft)
15.10.2014 09:40 11,1 C 95 % 1013,4 hPa 0,0 l/m 0,0 km/h (0 Bft) S-SO 157 10,3 C 22,8 C 0,0 km/h (0 Bft)
15.10.2014 09:48 11,5 C 95 % 1013,4 hPa 0,0 l/m 0,0 km/h (0 Bft) S-SO 157 10,7 C 22,8 C 0,0 km/h (0 Bft)
15.10.2014 09:50 11,5 C 95 % 1013,4 hPa 0,0 l/m 0,0 km/h (0 Bft) S-SO 157 10,7 C 22,8 C 0,0 km/h (0 Bft)
15.10.2014 10:00 11,8 C 95 % 1013,4 hPa 0,0 l/m 0,0 km/h (0 Bft) S-SO 157 11,0 C 22,8 C 0,0 km/h (0 Bft)
15.10.2014 10:10 11,8 C 95 % 1013,3 hPa 0,0 l/m 0,0 km/h (0 Bft) S-SO 157 11,0 C 22,8 C 0,0 km/h (0 Bft)
15.10.2014 10:20 12,2 C 95 % 1013,3 hPa 0,0 l/m 0,0 km/h (0 Bft) S-SO 157 11,4 C 22,8 C 0,0 km/h (0 Bft)
15.10.2014 10:30 12,6 C 95 % 1013,4 hPa 0,0 l/m 0,0 km/h (0 Bft) S-SO 157 11,8 C 22,8 C 0,0 km/h (0 Bft)
15.10.2014 10:40 12,3 C 94 % 1013,4 hPa 0,0 l/m 0,0 km/h (0 Bft) S-SO 157 11,4 C 22,8 C 0,0 km/h (0 Bft)
15.10.2014 10:50 11,8 C 94 % 1013,4 hPa 0,0 l/m 0,0 km/h (0 Bft) S-SO 157 10,9 C 22,8 C 0,0 km/h (0 Bft)
15.10.2014 11:00 11,7 C 94 % 1013,4 hPa 0,0 l/m 0,0 km/h (0 Bft) S-SO 157 10,8 C 22,8 C 0,0 km/h (0 Bft)
15.10.2014 11:10 11,9 C 93 % 1013,6 hPa 0,0 l/m 0,0 km/h (0 Bft) S-SO 157 10,8 C 22,8 C 0,0 km/h (0 Bft)
15.10.2014 11:20 12,6 C 92 % 1013,6 hPa 0,0 l/m 0,0 km/h (0 Bft) S-SO 157 11,3 C 22,8 C 0,0 km/h (0 Bft)
15.10.2014 11:30 13,4 C 89 % 1013,4 hPa 0,0 l/m 0,0 km/h (0 Bft) S-SO 157 11,6 C 22,8 C 0,0 km/h (0 Bft)
15.10.2014 11:40 14,1 C 88 % 1013,4 hPa 0,0 l/m 0,0 km/h (0 Bft) S-SO 157 12,1 C 22,8 C 0,0 km/h (0 Bft)
15.10.2014 11:50 15,1 C 86 % 1013,7 hPa 0,0 l/m 0,0 km/h (0 Bft) S-SO 157 12,8 C 22,8 C 0,0 km/h (0 Bft)
15.10.2014 12:00 15,3 C 84 % 1013,7 hPa 0,0 l/m 0,0 km/h (0 Bft) S-SO 157 12,6 C 22,8 C 0,0 km/h (0 Bft)
15.10.2014 12:10 15,1 C 84 % 1013,8 hPa 0,0 l/m 0,0 km/h (0 Bft) S-SO 157 12,4 C 22,8 C 0,0 km/h (0 Bft)
15.10.2014 12:20 15,1 C 83 % 1013,8 hPa 0,0 l/m 0,0 km/h (0 Bft) S-SO 157 12,2 C 22,8 C 0,0 km/h (0 Bft)
15.10.2014 12:30 15,3 C 82 % 1013,8 hPa 0,0 l/m 0,0 km/h (0 Bft) S-SO 157 12,2 C 22,8 C 0,0 km/h (0 Bft)
15.10.2014 12:40 16,8 C 83 % 1013,8 hPa 0,0 l/m 0,0 km/h (0 Bft) S-SO 157 13,9 C 22,8 C 0,0 km/h (0 Bft)
15.10.2014 12:48 16,9 C 81 % 1013,9 hPa 0,0 l/m 0,0 km/h (0 Bft) S-SO 157 13,6 C 22,8 C 0,0 km/h (0 Bft)
15.10.2014 12:50 16,9 C 81 % 1013,9 hPa 0,0 l/m 0,0 km/h (0 Bft) S-SO 157 13,6 C 22,8 C 0,0 km/h (0 Bft)
15.10.2014 13:00 17,0 C 80 % 1013,9 hPa 0,0 l/m 0,0 km/h (0 Bft) S-SO 157 13,5 C 22,8 C 0,0 km/h (0 Bft)
15.10.2014 13:10 16,7 C 78 % 1013,6 hPa 0,0 l/m 0,0 km/h (0 Bft) S-SO 157 12,8 C 22,8 C 0,0 km/h (0 Bft)
15.10.2014 13:20 16,9 C 80 % 1013,6 hPa 0,0 l/m 0,0 km/h (0 Bft) S-SO 157 13,4 C 22,8 C 0,0 km/h (0 Bft)
15.10.2014 13:30 16,9 C 80 % 1013,4 hPa 0,0 l/m 0,0 km/h (0 Bft) S-SO 157 13,4 C 22,8 C 0,0 km/h (0 Bft)
15.10.2014 13:40 17,3 C 72 % 1013,4 hPa 0,0 l/m 0,0 km/h (0 Bft) S-SO 157 12,2 C 22,8 C 0,0 km/h (0 Bft)
15.10.2014 13:50 17,1 C 74 % 1013,1 hPa 0,0 l/m 0,0 km/h (0 Bft) S-SO 157 12,4 C 22,8 C 0,0 km/h (0 Bft)
15.10.2014 14:00 17,4 C 72 % 1013,1 hPa 0,0 l/m 0,0 km/h (0 Bft) S-SO 157 12,3 C 22,8 C 0,0 km/h (0 Bft)
15.10.2014 14:10 18,3 C 69 % 1013,1 hPa 0,0 l/m 0,0 km/h (0 Bft) S-SO 157 12,5 C 22,8 C 0,0 km/h (0 Bft)
15.10.2014 14:20 18,6 C 57 % 1013,1 hPa 0,0 l/m 0,0 km/h (0 Bft) S-SO 157 9,9 C 22,8 C 0,0 km/h (0 Bft)
15.10.2014 14:30 18,3 C 54 % 1012,9 hPa 0,0 l/m 0,0 km/h (0 Bft) S-SO 157 8,8 C 22,8 C 0,0 km/h (0 Bft)
15.10.2014 14:40 19,1 C 56 % 1012,9 hPa 0,0 l/m 0,0 km/h (0 Bft) S-SO 157 10,1 C 22,8 C 0,0 km/h (0 Bft)
15.10.2014 14:50 19,4 C 54 % 1012,9 hPa 0,0 l/m 0,0 km/h (0 Bft) S-SO 157 9,8 C 22,8 C 0,0 km/h (0 Bft)
15.10.2014 15:00 18,6 C 52 % 1012,9 hPa 0,0 l/m 0,0 km/h (0 Bft) S-SO 157 8,5 C 22,8 C 0,0 km/h (0 Bft)
15.10.2014 15:10 19,2 C 50 % 1012,9 hPa 0,0 l/m 0,0 km/h (0 Bft) S-SO 157 8,5 C 22,8 C 0,0 km/h (0 Bft)
15.10.2014 15:20 19,0 C 53 % 1012,9 hPa 0,0 l/m 0,0 km/h (0 Bft) S-SO 157 9,2 C 22,8 C 0,0 km/h (0 Bft)
15.10.2014 15:30 20,8 C 52 % 1012,8 hPa 0,0 l/m 0,0 km/h (0 Bft) S-SO 157 10,6 C 22,8 C 0,0 km/h (0 Bft)
15.10.2014 15:38 20,0 C 50 % 1012,8 hPa 0,0 l/m 0,0 km/h (0 Bft) S-SO 157 9,3 C 22,8 C 0,0 km/h (0 Bft)
15.10.2014 15:40 20,0 C 50 % 1012,8 hPa 0,0 l/m 0,0 km/h (0 Bft) S-SO 157 9,3 C 22,8 C 0,0 km/h (0 Bft)
15.10.2014 15:50 19,1 C 52 % 1012,8 hPa 0,0 l/m 0,0 km/h (0 Bft) S-SO 157 9,0 C 22,8 C 0,0 km/h (0 Bft)
15.10.2014 16:00 18,5 C 52 % 1012,8 hPa 0,0 l/m 0,0 km/h (0 Bft) S-SO 157 8,5 C 22,8 C 0,0 km/h (0 Bft)
15.10.2014 16:10 17,2 C 55 % 1012,8 hPa 0,0 l/m 0,0 km/h (0 Bft) S-SO 157 8,1 C 22,8 C 0,0 km/h (0 Bft)
15.10.2014 16:20 18,7 C 54 % 1012,8 hPa 0,0 l/m 0,0 km/h (0 Bft) S-SO 157 9,2 C 22,8 C 0,0 km/h (0 Bft)
15.10.2014 16:30 18,0 C 54 % 1012,7 hPa 0,0 l/m 0,0 km/h (0 Bft) S-SO 157 8,6 C 22,8 C 0,0 km/h (0 Bft)
15.10.2014 16:40 18,2 C 55 % 1012,7 hPa 0,0 l/m 0,0 km/h (0 Bft) S-SO 157 9,0 C 22,8 C 0,0 km/h (0 Bft)
15.10.2014 16:50 16,9 C 59 % 1012,5 hPa 0,0 l/m 0,0 km/h (0 Bft) S-SO 157 8,8 C 22,8 C 0,0 km/h (0 Bft)
15.10.2014 17:00 16,6 C 62 % 1012,5 hPa 0,0 l/m 0,0 km/h (0 Bft) S-SO 157 9,3 C 22,8 C 0,0 km/h (0 Bft)
15.10.2014 17:10 16,2 C 66 % 1012,6 hPa 0,0 l/m 0,0 km/h (0 Bft) S-SO 157 9,8 C 22,8 C 0,0 km/h (0 Bft)
15.10.2014 17:20 15,9 C 68 % 1012,6 hPa 0,0 l/m 0,0 km/h (0 Bft) S-SO 157 10,0 C 22,8 C 0,0 km/h (0 Bft)
15.10.2014 17:30 15,6 C 69 % 1012,5 hPa 0,0 l/m 0,0 km/h (0 Bft) S-SO 157 9,9 C 22,8 C 0,0 km/h (0 Bft)
15.10.2014 17:40 15,3 C 70 % 1012,5 hPa 0,0 l/m 0,0 km/h (0 Bft) S-SO 157 9,9 C 22,8 C 0,0 km/h (0 Bft)
15.10.2014 17:50 14,8 C 72 % 1012,5 hPa 0,0 l/m 0,0 km/h (0 Bft) S-SO 157 9,8 C 22,8 C 0,0 km/h (0 Bft)
15.10.2014 18:00 14,2 C 74 % 1012,5 hPa 0,0 l/m 0,0 km/h (0 Bft) S-SO 157 9,6 C 22,8 C 0,0 km/h (0 Bft)
15.10.2014 18:10 13,9 C 76 % 1012,6 hPa 0,0 l/m 0,0 km/h (0 Bft) S-SO 157 9,7 C 22,8 C 0,0 km/h (0 Bft)
15.10.2014 18:20 13,6 C 78 % 1012,6 hPa 0,0 l/m 0,0 km/h (0 Bft) S-SO 157 9,8 C 22,8 C 0,0 km/h (0 Bft)
15.10.2014 18:30 13,1 C 79 % 1012,2 hPa 0,0 l/m 0,0 km/h (0 Bft) S-SO 157 9,5 C 22,8 C 0,0 km/h (0 Bft)
15.10.2014 18:38 12,8 C 81 % 1012,2 hPa 0,0 l/m 0,0 km/h (0 Bft) S-SO 157 9,6 C 22,8 C 0,0 km/h (0 Bft)
15.10.2014 18:40 12,8 C 81 % 1012,2 hPa 0,0 l/m 0,0 km/h (0 Bft) S-SO 157 9,6 C 22,8 C 0,0 km/h (0 Bft)
15.10.2014 18:50 12,5 C 82 % 1012,4 hPa 0,0 l/m 0,0 km/h (0 Bft) S-SO 157 9,5 C 22,8 C 0,0 km/h (0 Bft)
15.10.2014 19:00 12,4 C 83 % 1012,4 hPa 0,0 l/m 0,0 km/h (0 Bft) S-SO 157 9,6 C 22,8 C 0,0 km/h (0 Bft)
15.10.2014 19:10 12,2 C 83 % 1012,5 hPa 0,0 l/m 0,0 km/h (0 Bft) S-SO 157 9,4 C 22,8 C 0,0 km/h (0 Bft)
15.10.2014 19:20 11,8 C 84 % 1012,5 hPa 0,0 l/m 0,0 km/h (0 Bft) S-SO 157 9,2 C 22,8 C 0,0 km/h (0 Bft)
15.10.2014 19:30 11,5 C 85 % 1012,4 hPa 0,0 l/m 0,0 km/h (0 Bft) S-SO 157 9,1 C 22,8 C 0,0 km/h (0 Bft)
15.10.2014 19:40 11,4 C 85 % 1012,4 hPa 0,0 l/m 0,0 km/h (0 Bft) S-SO 157 9,0 C 22,8 C 0,0 km/h (0 Bft)
15.10.2014 19:50 11,4 C 85 % 1012,5 hPa 0,0 l/m 0,0 km/h (0 Bft) S-SO 157 9,0 C 22,8 C 0,0 km/h (0 Bft)
15.10.2014 20:00 11,2 C 85 % 1012,5 hPa 0,0 l/m 0,0 km/h (0 Bft) S-SO 157 8,8 C 22,8 C 0,0 km/h (0 Bft)
15.10.2014 20:10 11,5 C 86 % 1012,6 hPa 0,0 l/m 0,0 km/h (0 Bft) S-SO 157 9,2 C 22,8 C 0,0 km/h (0 Bft)
15.10.2014 20:20 11,2 C 86 % 1012,6 hPa 0,0 l/m 0,0 km/h (0 Bft) S-SO 157 8,9 C 22,8 C 0,0 km/h (0 Bft)
15.10.2014 20:30 11,3 C 87 % 1012,7 hPa 0,0 l/m 0,0 km/h (0 Bft) S-SO 157 9,2 C 22,8 C 0,0 km/h (0 Bft)
15.10.2014 20:40 11,4 C 87 % 1012,7 hPa 0,0 l/m 0,0 km/h (0 Bft) S-SO 157 9,3 C 22,8 C 0,0 km/h (0 Bft)
15.10.2014 20:50 11,5 C 87 % 1012,8 hPa 0,0 l/m 0,0 km/h (0 Bft) S-SO 157 9,4 C 22,8 C 0,0 km/h (0 Bft)
15.10.2014 21:00 11,3 C 87 % 1012,8 hPa 0,0 l/m 0,0 km/h (0 Bft) S-SO 157 9,2 C 22,8 C 0,0 km/h (0 Bft)
15.10.2014 21:10 11,3 C 87 % 1012,9 hPa 0,0 l/m 0,0 km/h (0 Bft) S-SO 157 9,2 C 22,8 C 0,0 km/h (0 Bft)
15.10.2014 21:20 11,4 C 87 % 1012,9 hPa 0,0 l/m 0,0 km/h (0 Bft) S-SO 157 9,3 C 22,8 C 0,0 km/h (0 Bft)
15.10.2014 21:30 11,2 C 87 % 1012,7 hPa 0,0 l/m 0,0 km/h (0 Bft) S-SO 157 9,1 C 22,8 C 0,0 km/h (0 Bft)
15.10.2014 21:38 11,1 C 87 % 1012,7 hPa 0,0 l/m 0,0 km/h (0 Bft) S-SO 157 9,0 C 22,8 C 0,0 km/h (0 Bft)
15.10.2014 21:40 11,1 C 87 % 1012,7 hPa 0,0 l/m 0,0 km/h (0 Bft) S-SO 157 9,0 C 22,8 C 0,0 km/h (0 Bft)
15.10.2014 21:50 10,9 C 87 % 1012,8 hPa 0,0 l/m 0,0 km/h (0 Bft) S-SO 157 8,8 C 22,8 C 0,0 km/h (0 Bft)
15.10.2014 22:00 11,0 C 87 % 1012,8 hPa 0,0 l/m 0,0 km/h (0 Bft) S-SO 157 8,9 C 22,8 C 0,0 km/h (0 Bft)
15.10.2014 22:10 11,0 C 87 % 1013,1 hPa 0,0 l/m 0,0 km/h (0 Bft) S-SO 157 8,9 C 22,8 C 0,0 km/h (0 Bft)
15.10.2014 22:20 11,1 C 88 % 1013,1 hPa 0,0 l/m 0,0 km/h (0 Bft) S-SO 157 9,2 C 22,8 C 0,0 km/h (0 Bft)
15.10.2014 22:30 11,2 C 89 % 1013,2 hPa 0,0 l/m 0,0 km/h (0 Bft) S-SO 157 9,5 C 22,8 C 0,0 km/h (0 Bft)
15.10.2014 22:40 11,2 C 89 % 1013,2 hPa 0,0 l/m 0,0 km/h (0 Bft) S-SO 157 9,5 C 22,8 C 0,0 km/h (0 Bft)
15.10.2014 22:50 11,1 C 89 % 1013,4 hPa 0,0 l/m 0,0 km/h (0 Bft) S-SO 157 9,4 C 22,8 C 0,0 km/h (0 Bft)
15.10.2014 23:00 11,1 C 90 % 1013,4 hPa 0,0 l/m 0,0 km/h (0 Bft) S-SO 157 9,5 C 22,8 C 0,0 km/h (0 Bft)
15.10.2014 23:10 10,9 C 91 % 1013,3 hPa 0,0 l/m 0,0 km/h (0 Bft) S-SO 157 9,5 C 22,8 C 0,0 km/h (0 Bft)
15.10.2014 23:20 11,0 C 91 % 1013,3 hPa 0,0 l/m 0,0 km/h (0 Bft) S-SO 157 9,6 C 22,8 C 0,0 km/h (0 Bft)
15.10.2014 23:30 11,0 C 92 % 1013,4 hPa 0,0 l/m 0,0 km/h (0 Bft) S-SO 157 9,8 C 22,8 C 0,0 km/h (0 Bft)
15.10.2014 23:40 11,0 C 92 % 1013,4 hPa 0,0 l/m 0,0 km/h (0 Bft) S-SO 157 9,8 C 22,8 C 0,0 km/h (0 Bft)
15.10.2014 23:50 11,1 C 93 % 1013,5 hPa 0,0 l/m 0,0 km/h (0 Bft) S-SO 157 10,0 C 22,8 C 0,0 km/h (0 Bft)
_ Min-Zeit 00:10 15:40 18:40 - 23:50 - - 00:10 23:50 23:50
Minimum _ 8,0 C 50 % 1012,2 hPa - 0,0 km/h (0 Bft) - - 6,5 C 22,8 C 0,0 km/h (0 Bft)
_ Max-Zeit 15:30 10:30 13:00 23:50 23:50 - - 12:40 23:50 23:50
Maximum _ 20,8 C 95 % 1013,9 hPa 0,0 l/m 0,0 km/h
S-SO (0 Bft)
- - 13,9 C 22,8 C 0,0 km/h
S-SO (0 Bft)
Durchschnitt _ 12,4 C 84 % 1013,1 hPa #0,0 l/m 0,0 km/h (0 Bft) - - - 9,5 C 22,8 C 0,0 km/h (0 Bft)